Regional Weather Roundup
Issued by NWS Albany, NY

Home | Current Version | Previous Version | Graphics & Text | Print | Product List | Glossary Off
Versions: 1 2 3 4 5 6 7 8 9 10 11 12 13 14 15 16 17 18 19 20 21 22 23 24 25 26 27 28 29 30 31 32 33 34 35 36 37 38 39 40 41 42 43 44 45 46 47 48 49 50

000
ASUS41 KALY 290910
RWRALY

NEW YORK STATE HOURLY WEATHER ROUNDUP
NATIONAL WEATHER SERVICE ALBANY NY
500 AM EDT WED JUL 29 2015

NOTE: "FAIR" INDICATES FEW OR NO CLOUDS BELOW 12,000 FEET WITH NO
SIGNIFICANT WEATHER AND/OR NO OBSTRUCTIONS TO VISIBILITY.

NYZ032-033-038>043-046>054-057>066-NYZ062>081-291000-
EAST


CITY           SKY/WX    TMP DP  RH WIND       PRES   REMARKS
ALBANY         PTCLDY    68  62  81 CALM      29.97S
GLENS FALLS    CLEAR     65  64  97 CALM      29.97S FOG
POUGHKEEPSIE   CLEAR     67  64  90 CALM      29.96S
NEWBURGH       CLEAR     68  66  94 CALM      29.99S
MONTGOMERY     CLEAR     65  64  97 CALM      29.98R
WHITE PLAINS   CLEAR     72  69  90 NW7       29.96R
ISLIP          CLEAR     72  69  90 CALM      29.94R
NEW YORK CITY  PTCLDY    80  66  62 NW3       29.94S
CENTRAL PARK   CLEAR     80  66  62 W5        29.98R
$$

NYZ005>009-017-018-044>046-055-056-291000-
CENTRAL


CITY           SKY/WX    TMP DP  RH WIND       PRES   REMARKS
FULTON         CLEAR     63  61  93 CALM      30.00R
SYRACUSE       MOCLDY    64  60  87 E5        29.99R
ROME           CLEAR     62  61  96 CALM      30.02R
ELMIRA         CLEAR     61  61 100 CALM      30.03R FOG
BINGHAMTON     CLEAR     63  62  97 W5        30.05R
MONTICELLO     CLEAR     63  63 100 CALM      30.05S
$$

NYZ026>034-041>043-291000-
NORTH


CITY           SKY/WX    TMP DP  RH WIND       PRES   REMARKS
WATERTOWN      CLEAR     65  58  78 S3        29.98R
FORT DRUM      NOT AVBL
MASSENA        CLEAR     68  59  73 SW6       29.95R
SARANAC LAKE   PTCLDY    56  54  93 CALM      30.02R
PLATTSBURGH    CLEAR     65  64  97 CALM      29.94R
$$

NYZ001>004-010>016-019>021-291000-
WEST


CITY           SKY/WX    TMP DP  RH WIND       PRES   REMARKS
NIAGARA FALLS  CLEAR     65  62  90 CALM      29.97F
BUFFALO        PTCLDY    69  61  75 SE5       29.99F
DUNKIRK        CLEAR     65  59  81 S8        29.99F
JAMESTOWN      CLEAR     63  57  82 S6        30.05F
WELLSVILLE     CLEAR     65  61  87 CALM      30.10R
ROCHESTER      PTCLDY    68  65  90 SW3       30.00R
PENN YAN       FOG       68  66  93 SW6       30.02S VSB 1
$$

             KEY
       WCI = WIND CHILL INDEX
       VSB = VISIBILITY
       HX  = HEAT INDEX
$$



USA.gov is the U.S. government's official web portal to all federal, state and local government web resources and services.